[[{"header":{"parameterUnit":"m.s-1","parameterCategory":1,"la1":30.2991,"la2":30.254,"lo1":-89.0895,"lo2":-89.0444,"dy":0.0017,"dx":0.0017,"nx":28,"ny":28,"refTime":"2024-05-05T09:00:00:Z","depth":0,"parameterNumber":2,"parameterNumberName":"U-component_of_WINDS"},"data":[0,0,0,0,0,0,0,0,0,0,0,0,0,0,0,0,0,0,0,0,0,0,0,0,0,0,0,0,0,0,0,0,0,0,0,0,0,0,0,0,0,0,0,0,0,0,0,0,0,0,0,0,0,0,0,0,0,0,-2.3519,-2.3519,0,-2.3542,-2.3542,-2.3542,-2.3514,-2.3513,-2.3512,-2.3511,-2.3536,-2.3538,-2.3539,0,0,0,0,0,0,0,0,0,0,0,0,0,-2.3452,-2.3454,-2.3519,-2.3519,-2.3519,-2.3542,-2.3542,-2.3542,-2.3514,-2.3513,-2.3511,-2.351,-2.3536,-2.3537,-2.3539,0,0,0,0,0,0,0,0,0,0,0,0,0,-2.3479,-2.3454,-2.3519,-2.3508,-2.3507,-2.3542,-2.3542,-2.3542,-2.3514,-2.3513,-2.3511,-2.351,-2.3535,-2.3537,-2.354,-2.3587,0,0,-2.3547,-2.3548,0,0,0,0,0,0,0,0,-2.3477,-2.3481,-2.3509,-2.3509,-2.3508,-2.3523,-2.3528,-2.3557,-2.3515,-2.3512,-2.3511,-2.3509,-2.3533,-2.3536,-2.3544,-2.3588,-2.3589,-2.3548,-2.3549,-2.355,-2.3551,0,0,0,0,0,0,0,-2.3476,-2.348,-2.3528,-2.351,-2.3509,-2.3502,-2.3504,-2.3533,-2.3531,-2.3512,-2.351,-2.3513,-2.3533,-2.3541,-2.3544,-2.3589,-2.3548,-2.355,-2.3551,-2.3552,-2.3674,-2.3675,0,0,0,0,0,0,-2.3475,-2.3479,-2.3527,-2.3529,-2.3488,-2.3505,-2.3507,-2.352,-2.3531,-2.3531,-2.3514,-2.3511,-2.3538,-2.3541,-2.3545,-2.36,-2.355,-2.3552,-2.3554,-2.3672,-2.3674,-2.3676,0,0,0,0,0,0,-2.3473,-2.3479,-2.3526,-2.3503,-2.3509,-2.3508,-2.3522,-2.3521,-2.353,-2.3532,-2.3532,-2.3523,-2.3537,-2.3541,-2.3576,-2.36,-2.3554,-2.3556,-2.367,-2.3672,-2.3675,-2.3711,0,0,0,0,0,0,-2.3472,-2.3479,-2.3496,-2.3504,-2.351,-2.3557,-2.3524,-2.3523,-2.3534,-2.3531,-2.3541,-2.3541,-2.3536,-2.3573,-2.3579,-2.3603,-2.3558,-2.3668,-2.3671,-2.3674,-2.3708,-2.3715,-2.372,0,0,0,0,0,-2.3469,-2.3506,-2.3497,-2.3503,-2.3531,-2.3558,-2.3562,-2.3555,-2.3536,-2.3554,-2.3555,-2.3541,-2.3597,-2.3577,-2.3583,-2.3608,-2.3666,-2.367,-2.3674,-2.3705,-2.3713,-2.372,0,0,0,0,0,0,-2.3502,-2.3507,-2.3497,-2.3537,-2.3547,-2.3553,-2.3575,-2.3564,-2.358,-2.3576,-2.3567,-2.357,-2.3607,-2.3612,-2.3589,-2.3655,-2.3629,-2.3634,-2.365,-2.3658,-2.3664,-2.3662,-2.356,0,0,0,0,0,-2.3514,-2.3534,-2.3538,-2.3573,-2.3579,-2.3576,-2.3588,-2.3581,-2.3592,-2.3596,-2.36,-2.3612,-2.3632,-2.3645,-2.3664,-2.3709,-2.371,-2.373,-2.3736,-2.3741,-2.3745,-2.3769,-2.3777,-2.3689,-2.3689,-2.3688,0,0,-2.3538,-2.3544,-2.3557,-2.358,-2.3587,-2.3609,-2.358,-2.3605,-2.3621,-2.36,-2.3633,-2.3637,-2.3649,-2.3689,-2.3707,-2.3694,-2.3771,-2.3746,-2.375,-2.3752,-2.3774,-2.3782,-2.379,-2.3691,-2.3691,-2.369,0,0,-2.3594,-2.3601,-2.363,-2.3638,-2.3649,-2.3647,-2.3655,-2.3662,-2.3664,-2.3697,-2.3681,-2.3701,-2.3736,-2.3745,-2.3755,-2.3815,-2.3802,-2.3822,-2.3854,-2.3878,-2.3884,-2.3891,-2.3911,-2.3919,-2.3826,-2.3826,-2.3826,0,-2.3623,-2.3655,-2.3647,-2.3673,-2.3683,-2.3665,-2.3695,-2.3703,-2.372,-2.3728,-2.3713,-2.3757,-2.3764,-2.3805,-2.382,-2.3828,-2.3836,-2.382,-2.3884,-2.389,-2.3896,-2.3915,-2.3923,-2.3829,-2.3828,-2.3828,-2.3828,0,-2.3691,-2.3713,-2.3736,-2.3752,-2.3765,-2.3793,-2.3789,-2.3804,-2.3797,-2.3797,-2.3831,-2.3839,-2.3858,-2.3868,-2.3862,-2.3909,-2.39,-2.3885,-2.3859,-2.3907,-2.3925,-2.3932,-2.3832,-2.3831,-2.383,-2.383,0,0,-2.3767,-2.3778,-2.3786,-2.3793,-2.3804,-2.3822,-2.385,-2.3868,-2.3881,-2.3894,-2.3916,-2.3947,-2.3933,-2.3943,-2.3938,-2.3958,-2.4005,-2.3941,-2.3941,-2.3951,-2.4057,-2.4067,-2.4076,-2.3997,-2.3998,-2.3999,-2.4056,0,-2.3822,-2.3868,-2.3861,-2.3906,-2.3927,-2.391,-2.3934,-2.3944,-2.3945,-2.3963,-2.3965,-2.3986,-2.3967,-2.3973,-2.3993,-2.3995,-2.4026,-2.3991,-2.4018,-2.4019,-2.4014,-2.4086,-2.4097,-2.4149,-2.4063,-2.4064,-2.4065,0,-2.3892,-2.3906,-2.3953,-2.3961,-2.3969,-2.3991,-2.4007,-2.4025,-2.4036,-2.4036,-2.4048,-2.4039,-2.4067,-2.4041,-2.408,-2.4056,-2.4067,-2.407,-2.4072,-2.4073,-2.4044,-2.4088,-2.4166,-2.4174,-2.4076,-2.4075,-2.4074,0,-2.3941,-2.3973,-2.4004,-2.4011,-2.4022,-2.4037,-2.4042,-2.4052,-2.4063,-2.4079,-2.4086,-2.4105,-2.4115,-2.413,-2.4127,-2.4108,-2.4166,-2.414,-2.4166,-2.4166,-2.4178,-2.4177,-2.4258,-2.4187,-2.4187,-2.4187,-2.4187,0,-2.4003,-2.4032,-2.4027,-2.4046,-2.4078,-2.4071,-2.4104,-2.4107,-2.4116,-2.4136,-2.4123,-2.4143,-2.4138,-2.4157,-2.4155,-2.4187,-2.4192,-2.4192,-2.4191,-2.4193,-2.4193,-2.4199,-2.4195,-2.4189,-2.4188,-2.4188,-2.4188,0,-2.4063,-2.4061,-2.4094,-2.4101,-2.4104,-2.4127,-2.4133,-2.4152,-2.4152,-2.4178,-2.4184,-2.4185,-2.4207,-2.4205,-2.4231,-2.4229,-2.4269,-2.4264,-2.4264,-2.4263,-2.4289,-2.4286,-2.4376,-2.4387,-2.431,-2.4311,-2.4311,0,-2.4102,-2.4124,-2.4133,-2.4145,-2.4151,-2.4171,-2.4183,-2.4177,-2.419,-2.4205,-2.4222,-2.4243,-2.4259,-2.4296,-2.4299,-2.4318,-2.4313,-2.4343,-2.4316,-2.4317,-2.4313,-2.4311,-2.4313,-2.4348,-2.4349,-2.435,-2.4351,0,-2.4171,-2.4169,-2.4186,-2.4203,-2.4217,-2.423,-2.4242,-2.4253,-2.4249,-2.4264,-2.4286,-2.4299,-2.4325,-2.4346,-2.4364,-2.437,-2.436,-2.4359,-2.4366,-2.4367,-2.4366,-2.4366,-2.4278,-2.4357,-2.4356,-2.4356,-2.4355,-2.4355,-2.4221,-2.4239,-2.4248,-2.4268,-2.4276,-2.4288,-2.4305,-2.4308,-2.4326,-2.4346,-2.4342,-2.4367,-2.4378,-2.4402,-2.441,-2.4429,-2.4419,-2.4429,-2.4431,-2.4434,-2.4436,-2.4364,-2.4433,-2.4433,-2.4433,-2.4433,-2.4432,0,-2.4288,-2.4293,-2.4311,-2.4328,-2.4344,-2.4332,-2.4345,-2.4359,-2.4381,-2.4392,-2.4408,-2.4434,-2.4454,-2.4459,-2.4479,-2.4494,-2.449,-2.4499,-2.4497,-2.4499,-2.4445,-2.4437,-2.4502,-2.4502,-2.4502,-2.4502,-2.4502,-2.4502,-2.4325,-2.4355,-2.4354,-2.4389,-2.4394,-2.4418,-2.4426,-2.4437,-2.4445,-2.4474,-2.4491,-2.4494,-2.4502,-2.4523,-2.4541,-2.4542,-2.455,-2.4561,-2.456,-2.451,-2.4503,-2.4496,-2.4488,-2.4563,-2.4563,-2.4612,-2.4613,-2.4613]},{"header":{"parameterUnit":"m.s-1","parameterCategory":1,"la1":30.2991,"la2":30.254,"lo1":-89.0895,"lo2":-89.0444,"dy":0.0017,"dx":0.0017,"nx":28,"ny":28,"refTime":"2024-05-05T09:00:00:Z","depth":0,"parameterNumber":3,"parameterNumberName":"V-component_of_WINDS"},"data":[0,0,0,0,0,0,0,0,0,0,0,0,0,0,0,0,0,0,0,0,0,0,0,0,0,0,0,0,0,0,0,0,0,0,0,0,0,0,0,0,0,0,0,0,0,0,0,0,0,0,0,0,0,0,0,0,0,0,3.4474,3.4474,0,3.4542,3.4543,3.4543,3.4518,3.4517,3.4515,3.4514,3.4582,3.4585,3.4588,0,0,0,0,0,0,0,0,0,0,0,0,0,3.432,3.4323,3.4474,3.4474,3.4475,3.4542,3.4543,3.4544,3.4518,3.4516,3.4515,3.4513,3.4581,3.4584,3.4588,0,0,0,0,0,0,0,0,0,0,0,0,0,3.4387,3.4324,3.4473,3.4471,3.4471,3.4541,3.4543,3.4544,3.4519,3.4516,3.4514,3.4512,3.4579,3.4584,3.4589,3.4665,0,0,3.4604,3.4606,0,0,0,0,0,0,0,0,3.4383,3.4393,3.447,3.4471,3.4472,3.4519,3.4513,3.4584,3.4519,3.4501,3.4514,3.4511,3.4563,3.4569,3.4586,3.4668,3.4671,3.4604,3.4607,3.4609,3.4611,0,0,0,0,0,0,0,3.4379,3.439,3.45,3.4471,3.4472,3.4466,3.4473,3.4527,3.4544,3.4502,3.45,3.4509,3.4562,3.4582,3.4588,3.4672,3.4604,3.4608,3.4611,3.4613,3.482,3.4823,0,0,0,0,0,0,3.4374,3.4386,3.4498,3.4502,3.4421,3.447,3.4478,3.4506,3.4543,3.4546,3.4511,3.4508,3.4575,3.4582,3.459,3.4682,3.4609,3.4614,3.4617,3.4818,3.4821,3.4824,0,0,0,0,0,0,3.4371,3.4384,3.4496,3.4444,3.4458,3.4475,3.4507,3.4509,3.4528,3.455,3.4552,3.4528,3.4573,3.4583,3.4647,3.4684,3.4616,3.462,3.4815,3.4819,3.4822,3.4867,0,0,0,0,0,0,3.4367,3.4383,3.4413,3.4445,3.446,3.4552,3.4509,3.4512,3.4537,3.4533,3.4566,3.4569,3.4572,3.464,3.4652,3.469,3.4624,3.4812,3.4817,3.4821,3.4862,3.4872,3.488,0,0,0,0,0,3.4361,3.4422,3.4415,3.4428,3.4498,3.4554,3.4563,3.4565,3.454,3.457,3.4583,3.4568,3.4678,3.4647,3.466,3.47,3.4809,3.4815,3.4821,3.4858,3.487,3.488,0,0,0,0,0,0,3.4394,3.4427,3.4418,3.4492,3.452,3.455,3.4587,3.4578,3.4614,3.4609,3.4609,3.4617,3.4683,3.4697,3.4662,3.4776,3.474,3.4749,3.4764,3.4775,3.4784,3.4779,3.4628,0,0,0,0,0,3.441,3.4453,3.4479,3.4541,3.4556,3.4569,3.4594,3.4593,3.4623,3.4635,3.4653,3.4682,3.4723,3.475,3.4789,3.4864,3.4871,3.4898,3.4907,3.4915,3.4922,3.4964,3.4976,3.4843,3.4843,3.4843,0,0,3.4443,3.4466,3.4493,3.4549,3.4571,3.4615,3.458,3.4628,3.4661,3.4642,3.4703,3.4718,3.475,3.482,3.4852,3.4834,3.496,3.4922,3.4928,3.4931,3.4971,3.4983,3.4995,3.4847,3.4846,3.4845,0,0,3.4526,3.4548,3.4602,3.4625,3.466,3.4668,3.4681,3.4712,3.4721,3.4783,3.4769,3.4808,3.4879,3.4902,3.4924,3.5016,3.5003,3.5028,3.5075,3.5115,3.5126,3.5135,3.5168,3.518,3.5036,3.5036,3.5036,0,3.4563,3.463,3.4631,3.4682,3.4706,3.4691,3.4746,3.4768,3.4813,3.483,3.481,3.4899,3.4919,3.4995,3.5017,3.5035,3.505,3.5025,3.5124,3.5134,3.5142,3.5174,3.5187,3.5039,3.5038,3.5038,3.5038,0,3.4673,3.472,3.476,3.4804,3.4833,3.4886,3.4895,3.4924,3.4921,3.4931,3.4994,3.5018,3.5062,3.508,3.5077,3.5155,3.5143,3.5124,3.5088,3.5158,3.5188,3.52,3.5043,3.5042,3.5041,3.504,0,0,3.478,3.4824,3.4839,3.4859,3.4896,3.4932,3.4983,3.5026,3.5051,3.5082,3.5126,3.5186,3.5168,3.5192,3.5192,3.5227,3.5299,3.5203,3.5204,3.5221,3.5387,3.5402,3.5416,3.5291,3.5293,3.5295,3.5384,0,3.4866,3.4957,3.496,3.5043,3.5086,3.5072,3.5117,3.5144,3.5155,3.5192,3.5204,3.5247,3.522,3.5235,3.5269,3.5283,3.5332,3.5276,3.5331,3.5333,3.5324,3.5431,3.5447,3.553,3.5396,3.5398,3.5399,0,3.4979,3.5015,3.5102,3.5133,3.5151,3.5191,3.5231,3.5267,3.5298,3.5303,3.533,3.5325,3.5377,3.5339,3.541,3.5372,3.5394,3.5404,3.5408,3.5413,3.5371,3.544,3.5557,3.557,3.5418,3.5416,3.5415,0,3.5049,3.5118,3.5179,3.5197,3.5234,3.5263,3.5279,3.5307,3.5333,3.5368,3.5385,3.5425,3.5447,3.5477,3.5483,3.5454,3.5555,3.5517,3.5561,3.5561,3.5583,3.5581,3.5705,3.5596,3.5596,3.5596,3.5596,0,3.5145,3.5199,3.5211,3.5249,3.5309,3.5311,3.5371,3.5385,3.541,3.545,3.544,3.5478,3.5482,3.5521,3.5525,3.5584,3.5594,3.56,3.56,3.5601,3.56,3.5616,3.561,3.5599,3.5598,3.5598,3.5597,0,3.5233,3.5243,3.5309,3.5339,3.5347,3.539,3.5416,3.5452,3.5461,3.5512,3.5524,3.554,3.5585,3.5593,3.5646,3.5649,3.5719,3.5714,3.5709,3.5709,3.5752,3.5748,3.5891,3.591,3.5788,3.5789,3.579,0,3.5294,3.5336,3.537,3.5396,3.5414,3.5457,3.5483,3.5487,3.5515,3.5553,3.5584,3.5628,3.5664,3.5737,3.5752,3.5793,3.5788,3.5836,3.5794,3.5794,3.579,3.5788,3.5792,3.5844,3.5845,3.5846,3.5847,0,3.5402,3.5405,3.5444,3.5485,3.5517,3.5549,3.5579,3.5601,3.5609,3.5641,3.5687,3.5715,3.5769,3.5813,3.5854,3.587,3.586,3.586,3.5872,3.5874,3.587,3.5873,3.5732,3.5857,3.5856,3.5855,3.5854,3.5854,3.5479,3.5515,3.5545,3.5589,3.5612,3.5641,3.5676,3.569,3.5729,3.5774,3.5774,3.5825,3.5854,3.5907,3.5926,3.5966,3.5951,3.5968,3.5973,3.5978,3.5982,3.5863,3.5973,3.5973,3.5972,3.5972,3.5972,0,3.5587,3.5605,3.5645,3.5689,3.5723,3.571,3.5743,3.5773,3.5818,3.5846,3.5881,3.5935,3.5977,3.5996,3.6038,3.6066,3.6063,3.6077,3.6076,3.608,3.5993,3.5978,3.6079,3.6079,3.6079,3.6079,3.6079,3.6079,3.5647,3.5708,3.5714,3.5787,3.5804,3.5855,3.5875,3.5901,3.5923,3.5984,3.6019,3.6031,3.6056,3.6099,3.6138,3.6142,3.6158,3.6175,3.6178,3.6096,3.6086,3.6075,3.6062,3.6179,3.6179,3.6261,3.6262,3.6263]}]]